Zurück zum Katalog

COSMOS 1475

AktivNavigationLEO
NORAD 14173·PAYLOAD·🇷🇺 Russia

Gestartet Jul 6, 1983 von Plesetsk Cosmodrome

Loading…

Nächste Überflüge (nächste 24 Stunden)

TLE

AktuellSource: Space-Track

Epoche: Sep 14, 2026, 15:42 UTC

1 14173U 83069C   26257.65457229 -.00000026  00000-0 -61234-4 0  9994
2 14173  74.0274  34.0848 0022283 307.0142  64.6608 12.54581890978213

Verfolge COSMOS 1475 in Echtzeit mit AllMySat

Download on the App Store